Location: Holmbach
(49.5093°N, 8.8411°E)
Time: 15:19:04
(UTC+00:00)

USA 307 - Pass Details

Date: 17 June 2025
Orbit: 495 x 502 km, 54.0° (Epoch: 10 March)

Event Time Altitude Azimuth Distance (km) Brightness Sun altitude
Exits shadow 22:57:52 - 251° (WSW) 2,192 5.8 -16.8°
Reaches altitude 10° 22:59:30 10° 254° (WSW) 1,550 5.0 -16.9°
Maximum altitude 23:03:05 70° 338° (NNW) 515 2.8 -16.9°
Drops below altitude 10° 23:07:04 10° 63° (ENE) 1,710 5.6 -17.0°
Sets 23:09:19 0° 66° (ENE) 2,591 6.5 -17.0°
